Regional Weather Roundup
Issued by NWS Wakefield, VA

Home | Current Version | Previous Version | Graphics & Text | Print | Product List | Glossary On
Versions: 1 2 3 4 5 6 7 8 9 10 11 12 13 14 15 16 17 18 19 20 21 22 23 24 25 26 27 28 29 30 31 32 33 34 35 36 37 38 39 40 41 42 43 44 45 46 47 48 49 50
000
ASUS41 KAKQ 200615
RWRAKQ

REGIONAL WEATHER ROUNDUP
NATIONAL WEATHER SERVICE WAKEFIELD VA
100 AM EST TUE FEB 20 2018

Note: "fair" indicates few or no clouds below 12,000 feet with no
significant weather and/or obstructions to visibility. * = Denotes
station may not report precipitation (e.g., rain,snow,etc.),
thunder or fog.

VAZ042-051-052>054-056-200700-
NORTHERN VIRGINIA

CITY           SKY/WX    TMP DP  RH WIND       PRES   REMARKS
WASH NATIONAL  CLOUDY    50  49  96 S9        30.35S
DULLES         CLOUDY    49  48  97 S10       30.32F
FORT BELVOIR   CLOUDY    51  49  93 CALM      30.35S
QUANTICO       CLOUDY    48  47  96 S10       30.37S
FREDERICKSBRG* CLOUDY    51  51 100 SW12G17   30.36R
STAFFORD*      CLOUDY    51  51 100 SW6       30.40S
WARRENTON      CLOUDY    50  47  87 CALM      30.34R
CULPEPER*      CLOUDY    50  47  91 S7        30.35S
MANASSAS*      CLOUDY    49  47  93 S7        30.34S
LEESBURG*      CLOUDY    45  45 100 S5        30.32F
WINCHESTER     FAIR      50  46  87 SW6       30.30S
FRONT ROYAL*   FAIR      54  50  87 S7        30.28S
LURAY*         FAIR      52  48  87 S5        30.31S
$$

VAZ048-049-060>072-079>083-200700-
CENTRAL AND SOUTH CENTRAL VIRGINIA

CITY           SKY/WX    TMP DP  RH WIND       PRES   REMARKS
RICHMOND       CLOUDY    51  51 100 S8        30.39S
CHESTERFIELD*  CLOUDY    53  51  93 VRB3      30.40S
PETERSBURG*    CLOUDY    50  48  93 CALM      30.41S FOG
HANOVER        CLOUDY    52  51  97 S7        30.40R
TAPPAHANNOCK*  CLOUDY    53  53  98 S5        30.39S FOG
QUINTON*       CLOUDY    50  50 100 S5        30.40S FOG
CHARLOTTSVILLE FAIR      49  46  90 SW7       30.34S
GORDONSVILLE*  CLOUDY    49  49 100 SW9       30.35F
ORANGE*        CLOUDY    46  46 100 SW5       30.35S
LOUISA*        CLOUDY    48  48  99 SW5       30.41S FOG
BUMPASS*       CLOUDY    50  48  95 SW7       30.37S
FARMVILLE*     CLOUDY   N/A N/A N/A SW7       30.38S HAZE
CREWE*         CLOUDY    52  52 100 SW6       30.40R
FORT PICKETT*  CLOUDY    51  51 100 SW8       30.40S
CHASE CITY*    CLOUDY    50  50  99 CALM      30.42S
CLARKSVILLE*   CLOUDY    50  50 100 S3        30.42S
SOUTH HILL*    CLOUDY    49  49 100 S5        30.48S VSB 1/4
LAWRENCEVILLE* CLOUDY    50  49  97 CALM      30.42S VSB 1/2
EMPORIA*       CLOUDY    50  50 100 S3        30.45R FOG
$$

VAZ088>098-200700-
SOUTHEAST VIRGINIA

CITY           SKY/WX    TMP DP  RH WIND       PRES   REMARKS
NORFOLK        CLOUDY    57  56  96 SW6       30.41S FOG
VIRGINIA BEACH CLOUDY    62  60  93 S10       30.40F
NORFOLK NAVAL  CLOUDY    56  54  93 SW5       30.42F FOG
WEST POINT*    CLOUDY    52  51  95 SE3       30.41F
SALUDA*        CLOUDY    55  55 100 S7        30.39F
NEWPORT NEWS   CLOUDY    54  52  93 SW3       30.42S
LANGLEY AFB    CLOUDY    54  54 100 SW5       30.41S
FORT EUSTIS    DRIZZLE   53  52  96 SE3       30.39F
WILLIAMSBURG*  CLOUDY    54  52  94 CALM      30.41F
HR EXEC AP*    CLOUDY    54  54 100 S5        30.42F
FRANKLIN*      CLOUDY    52  51  97 CALM      30.43F
US460-WAKEFLD  CLOUDY    52  52 100 CALM      30.42S
$$

VAZ020-022-025-037-045-200700-
WEST CENTRAL AND SOUTHWEST VIRGINIA

CITY           SKY/WX    TMP DP  RH WIND       PRES   REMARKS
STAUNTON*      CLOUDY    48  47  95 SE7       30.36S
WAYNESBORO*    CLOUDY    46  46 100 CALM      30.34S
HOT SPRINGS VA FAIR      55  49  79 SW17G23   30.36S
LYNCHBURG      CLOUDY    47  47 100 S3        30.38F FOG
DANVILLE       CLOUDY    50  50 100 S5        30.41F FOG
SOUTH BOSTON*  CLOUDY    50  49  95 S6        30.42S
MARTINSVILLE   CLOUDY    49  48  97 CALM      30.42S
ROANOKE        CLOUDY    49  48  97 CALM      30.40S FOG
BLACKSBURG     FAIR      44  44 100 CALM      30.41S
DUBLIN*        FOG       47  47 100 CALM      30.38S VSB 1/4
MARION*        FAIR      51   0  12 NE5       30.38R
HILLSVILLE*    CLOUDY    54  53  96 S8G16     30.38S
RICHLANDS*     FAIR      60  48  66 S7        30.32F
WISE*          FAIR      61  52  72 S15G23    30.31S
ABINGDON*      FAIR      58  52  82 CALM      30.32S
$$

MDZ021>025-VAZ099-100-200700-
SOUTHERN MARYLAND AND THE DELMARVA PENINSULA

CITY           SKY/WX    TMP DP  RH WIND       PRES   REMARKS
PATUXENT RIVER CLOUDY    53  52  96 SW6       30.37S FOG
BAY BRIDGE APT CLOUDY    50  50 100 S7        30.35S FOG
LEONARDTOWN    CLOUDY    52  50  93 SW6       30.39S
DOVER          CLOUDY    55  53  94 SW10      30.34S
GEORGETOWN     CLOUDY    60  56  86 SW9       30.36F
EASTON         CLOUDY    53  52  95 SW8       30.39F
CAMBRIDGE      CLOUDY    52  52 100 VRB6      30.37F
SALISBURY      CLOUDY    58  57  97 SW9       30.37F
OCEAN CITY     CLOUDY    49  49 100 S7        30.39F FOG
WALLOPS ISLAND FOG       51  51 100 S6        30.40F VSB 1
ACCOMACK*      CLOUDY    54  53  99 S5        30.40F FOG
$$

NCZ012>017-030>032-200700-
NORTH CENTRAL AND EASTERN NORTH CAROLINA

CITY           SKY/WX    TMP DP  RH WIND       PRES   REMARKS
ROANOKE RAPIDS NOT AVBL
RALEIGH        FOG       50  50 100 CALM      30.44S VSB 1/8
ELIZABETH CITY CLOUDY    63  63 100 S6        30.43S
AHOSKIE*       CLOUDY    51  51 100 CALM      30.44S FOG
EDENTON*       CLOUDY    61  60  96 S5        30.44S FOG
CURRITUCK*     CLOUDY    60  59  96 S3        30.44S
KILL DEVIL HLS MOCLDY   N/A N/A N/A CALM      30.43S
MANTEO         MOCLDY    56  56 100 SW3       30.45S
CAPE HATTERAS  CLOUDY    63  62  97 S6        30.46S
TARBORO*       NOT AVBL
GOLDSBORO      MOCLDY    55  54  94 CALM      30.41S FOG
WASHINGTON     CLOUDY    59  59  98 CALM      30.44S FOG
GREENVILLE     FOG       55  55 100 CALM      30.43S VSB 1/2
NEW BERN       CLOUDY    62  62 100 S5        30.45S FOG
WILMINGTON     MOCLDY    66  66 100 S6        30.43R
$$

VAZ048-200700-
ELSEWHERE

CITY           SKY/WX    TMP DP  RH WIND       PRES   REMARKS
HARRISBURG PA  FOG       42  41  96 CALM      30.30S VSB 1
BALTIMORE      CLOUDY    49  49 100 SW3       30.32F
ANNAPOLIS      CLOUDY    48  48 100 S7        30.34F FOG
ANDREWS AFB    CLOUDY    50  49  98 S14       30.33F FOG
PHILADELPHIA   FOG       47  47 100 W7        30.34S VSB 1/2
HENDERSON NC   CLOUDY    47  47  98 CALM      30.42F FOG
GREENSBORO     FOG       52  52 100 SW3       30.41S VSB 1/4
ROCKY MOUNT    FOG       52  52 100 CALM      30.44S VSB 1/4
$$

VAZ100-200700-
MARINE

STATION/POSITION TIME  TEMP    WIND        PRES    WAVE   SWELL
                       AIR SEA DIR/SP/G            HT/PER HT/PER
                 (UTC) (F)     (DEG/KT/KT) (MB)    (FT/S) (FT/S)
BRANDYWINE LGT   0542          190/  9/  9   N/A
CAPE MAY NJ      0548          170/  7/  9   N/A
LEWES DE         0542          220/  8/ 13   N/A
15NM E FENWICK I 0550   46 42  180/ 14/ 14 1029.0F   3/10   3/10
OCEAN-CITY-INLET 0548          200/  7/  9   N/A
WACHAPREAGUE VA  0548          210/  4/  6   N/A
THOMAS POINT MD  0600   45 38  180/ 14/ 14   N/A
GOOSES REEF MD   0600   42 38  150/  8/  8 1028.6    1
COVE POINT MD    0548          180/  6/  8   N/A
SOLOMONS ISLAND  0548          220/  5/  6   N/A
BISHOPS HEAD MD  0548          190/ 10/ 12   N/A
POTOMAC MD       0600   48 42   30/  4/  6 1028.0    0
CAMBRIDGE MD     0524   52 44              1029.2
LEWISETTA VA     0548          230/  6/  8   N/A
RAPPAHANNOCK LGT 0548          180/ 10/ 11   N/A
STINGRAY PT      0600   47 42  230/  6/  8 1030.0    0
YORK RVR RNG VA  0548          260/  4/  5   N/A
YORKTOWN VA      0548          240/  6/  8   N/A
DOMINION TERM VA 0548          270/  1/  3   N/A
KIPTOPEKE VA     0542          170/  3/  4   N/A
CAPE HENRY VA    0548          180/  3/  5   N/A
S CRANEY ISL VA  0548          210/  4/  5   N/A
CAPE HENRY BUOY  0600      44                N/A     2/ 6
1ST LANDING BUOY 0600      42                N/A     1/ 4
CAPE CHARLES BUO 0551      43                N/A     2/ 5
64NM E OF VA BCH 0550   55 50  190/ 10/ 12 1031.2S   4/ 6   3/ 6
DUCK PIER NC     0548          190/ 11/ 13   N/A
44056 DUCK FRF   0600      45                N/A     3/ 6
OREGON INLET NC  0542          170/  8/ 11   N/A
HATTERAS NC      0542          170/  5/  7   N/A
DIAMOND SHLS NC  0600   72 73  160/ 16/ 19 1031.6
CAPE LOOKOUT NC  0600          170/  6/  6 1031.2S
$$



USA.gov is the U.S. government's official web portal to all federal, state and local government web resources and services.